Location: Chippewa Lake
(41.0698°N, 81.9010°W)
Time: 02:17:34
(UTC+00:00)

COSMOS 2406 - Pass Details

Date: 09 May 2021
Orbit: 844 x 862 km, 71.0° (Epoch: 24 June)

Event Time Altitude Azimuth Distance (km) Brightness Sun altitude
Rises 03:23:38 0° 336° (NNW) 3,411 7.7 -25.2°
Reaches altitude 10° 03:26:05 10° 336° (NNW) 2,473 6.7 -25.4°
Maximum altitude 03:31:46 89° 249° (WSW) 852 3.1 -26.0°
Enters shadow 03:32:18 75° 162° (SSE) 878 3.0 -26.0°
